VK2XSE Weather Reports


Display with metric or nautical units.
time (UTC)temp
F
wind
direction
speed
MPH
gust
MPH
rain 1hr
in
rain 24hr
in
rain mn
in
humidity
%
barometer
mb
20260831230027 59 23 1.0 2.0 0.00 0.00 0.00 80 1024.8
20260831225017 56 23 1.0 2.0 0.00 0.00 0.00 84 1024.9
20260831224019 54 45 1.0 3.0 0.00 0.00 0.00 85 1024.9
20260831223019 52 23 1.0 2.0 0.00 0.00 0.00 88 1025.0
20260831222017 51 23 1.0 2.0 0.00 0.00 0.00 91 1024.9
20260831221017 49 45 1.0 3.0 0.00 0.00 0.00 91 1024.9
20260831220018 47 45 2.0 3.0 0.00 0.00 0.00 92 1024.8
20260831215017 45 45 2.0 3.0 0.00 0.00 0.00 93 1024.8
20260831214020 43 45 2.0 3.0 0.00 0.00 0.00 92 1024.9
20260831213017 42 23 1.0 2.0 0.00 0.00 0.00 91 1025.0
20260831212017 41 0.0 2.0 0.00 0.00 0.00 91 1025.0
20260831211017 41 0.0 2.0 0.00 0.00 0.00 91 1025.0
20260831210017 41 0 1.0 2.0 0.00 0.01 0.00 91 1025.0
20260831205017 40 45 2.0 3.0 0.00 0.01 0.00 91 1024.8
20260831204017 40 0 2.0 3.0 0.00 0.01 0.00 90 1024.8
20260831203019 40 45 2.0 4.0 0.00 0.01 0.00 90 1024.7
20260831202019 40 45 1.0 2.0 0.00 0.01 0.00 90 1024.6
20260831201018 40 68 1.0 1.0 0.00 0.01 0.00 90 1024.7
20260831200018 40 0.0 2.0 0.00 0.01 0.00 90 1024.8
20260831195018 40 0.0 2.0 0.00 0.01 0.00 89 1024.8
20260831194018 40 0.0 2.0 0.00 0.01 0.00 89 1025.0
20260831193018 41 0.0 0.0 0.00 0.01 0.00 89 1025.1
20260831192018 41 0.0 0.0 0.00 0.01 0.00 89 1025.2
20260831191019 41 0.0 2.0 0.00 0.01 0.00 89 1025.3
20260831190018 41 45 1.0 1.0 0.00 0.01 0.00 89 1025.0
20260831185018 41 23 1.0 2.0 0.00 0.01 0.00 89 1025.2
20260831184018 41 0.0 2.0 0.00 0.01 0.00 89 1025.2
20260831183018 42 68 1.0 2.0 0.00 0.01 0.00 89 1025.2
20260831182018 42 23 1.0 3.0 0.00 0.01 0.00 89 1025.3
20260831181018 42 45 1.0 2.0 0.00 0.01 0.00 89 1025.3
20260831180018 42 45 1.0 2.0 0.00 0.01 0.00 88 1025.2
20260831175018 42 23 1.0 2.0 0.00 0.01 0.00 88 1025.4
20260831174018 42 0.0 2.0 0.00 0.01 0.00 87 1025.4
20260831173018 43 0.0 2.0 0.00 0.01 0.00 87 1025.5
20260831172018 43 0.0 2.0 0.00 0.01 0.00 87 1025.6
20260831171018 43 0.0 2.0 0.00 0.01 0.00 87 1025.5
20260831170018 43 23 1.0 2.0 0.00 0.01 0.00 87 1025.6
20260831165018 43 23 1.0 2.0 0.00 0.01 0.00 87 1025.7
20260831164018 43 0 1.0 2.0 0.00 0.01 0.00 87 1025.8
20260831163018 43 0.0 1.0 0.00 0.01 0.00 87 1026.0
20260831162018 43 0.0 1.0 0.00 0.01 0.00 86 1026.1
20260831161018 43 0.0 2.0 0.00 0.01 0.00 85 1026.1
20260831160018 44 0.0 0.0 0.00 0.01 0.00 84 1026.2
20260831155018 44 45 1.0 3.0 0.00 0.01 0.00 84 1026.4
20260831154018 45 45 1.0 3.0 0.00 0.01 0.00 85 1026.5
20260831153018 45 23 1.0 2.0 0.00 0.01 0.00 84 1026.6
20260831152018 45 0.0 2.0 0.00 0.01 0.00 84 1026.7
20260831151018 45 0.0 2.0 0.00 0.01 0.00 84 1026.8
20260831150018 45 0.0 1.0 0.00 0.01 0.00 82 1026.9
20260831145018 46 0.0 2.0 0.00 0.01 0.00 82 1027.0
20260831144018 46 0 1.0 2.0 0.00 0.01 0.00 82 1027.0
20260831143018 46 0 2.0 2.0 0.00 0.01 0.00 81 1026.9
20260831142017 46 0 1.0 2.0 0.00 0.01 0.00 80 1026.9
20260831141018 47 45 1.0 2.0 0.00 0.01 0.00 79 1026.9
20260831140026 47 45 1.0 2.0 0.00 0.01 0.01 78 1027.0
20260831135017 48 68 1.0 2.0 0.00 0.01 0.01 77 1027.0
20260831134018 48 68 1.0 2.0 0.00 0.01 0.01 77 1027.1
20260831133017 49 45 1.0 1.0 0.00 0.01 0.01 76 1027.2
20260831132017 49 45 1.0 1.0 0.00 0.01 0.01 75 1027.3
20260831131017 50 0.0 1.0 0.00 0.01 0.01 75 1027.3
20260831130017 50 0.0 2.0 0.00 0.01 0.01 75 1027.4
20260831125017 50 0.0 2.0 0.00 0.01 0.01 76 1027.4
20260831124017 49 0.0 2.0 0.00 0.01 0.01 76 1027.5
20260831123017 49 0.0 2.0 0.00 0.01 0.01 77 1027.6
20260831122017 50 0.0 1.0 0.00 0.01 0.01 77 1027.6
20260831121017 50 0.0 1.0 0.00 0.01 0.01 77 1027.6
20260831120017 50 0.0 2.0 0.00 0.01 0.01 78 1027.6
20260831115017 50 0.0 1.0 0.00 0.01 0.01 76 1027.7
20260831114017 51 0.0 2.0 0.00 0.01 0.01 75 1027.7
20260831113017 52 0.0 2.0 0.00 0.01 0.01 74 1027.8
20260831112017 52 0.0 2.0 0.00 0.01 0.01 73 1027.8
20260831111017 53 0.0 2.0 0.00 0.01 0.01 73 1027.7
20260831110017 53 45 1.0 1.0 0.00 0.01 0.01 72 1027.7
20260831105017 54 45 1.0 2.0 0.00 0.01 0.01 71 1027.7
20260831104017 54 0.0 2.0 0.00 0.01 0.01 70 1027.7
20260831103017 55 45 1.0 2.0 0.00 0.01 0.01 69 1027.6
20260831102017 55 45 1.0 2.0 0.00 0.01 0.01 68 1027.7
20260831101017 56 0.0 2.0 0.00 0.01 0.01 67 1027.7
20260831100017 56 45 1.0 2.0 0.00 0.01 0.01 65 1027.7
20260831095017 57 68 1.0 2.0 0.00 0.01 0.01 63 1027.6
20260831094017 59 68 1.0 1.0 0.00 0.01 0.01 60 1027.7
20260831093017 61 0.0 2.0 0.00 0.01 0.01 58 1027.7
20260831092017 61 0.0 2.0 0.00 0.01 0.01 57 1027.7
20260831091017 62 0.0 2.0 0.00 0.01 0.01 56 1027.7
20260831090017 63 90 1.0 1.0 0.00 0.01 0.01 55 1027.7
20260831085017 63 90 1.0 1.0 0.00 0.01 0.01 54 1027.6
20260831084017 64 90 1.0 2.0 0.00 0.01 0.01 53 1027.6
20260831083017 65 158 1.0 1.0 0.00 0.01 0.01 53 1027.5
20260831082019 66 0.0 1.0 0.00 0.01 0.01 53 1027.5
20260831081019 67 0.0 0.0 0.00 0.01 0.01 49 1027.5
20260831080019 67 0.0 2.0 0.00 0.01 0.01 49 1027.5
20260831075019 68 0.0 0.0 0.00 0.01 0.01 48 1027.5
20260831074019 69 0.0 1.0 0.00 0.01 0.01 46 1027.5
20260831073018 70 158 1.0 1.0 0.00 0.01 0.01 45 1027.5
20260831072019 70 158 1.0 1.0 0.00 0.01 0.01 43 1027.4
20260831071018 71 0.0 1.0 0.00 0.01 0.01 42 1027.4
20260831070018 71 158 1.0 3.0 0.00 0.01 0.01 42 1027.4
20260831065018 72 158 2.0 6.0 0.00 0.01 0.01 39 1027.5
20260831064018 73 113 1.0 3.0 0.00 0.01 0.01 36 1027.5
20260831063018 73 0.0 2.0 0.00 0.01 0.01 34 1027.5
20260831062018 73 0.0 2.0 0.00 0.01 0.01 34 1027.5
20260831061018 73 135 1.0 1.0 0.00 0.01 0.01 35 1027.5
20260831060018 73 113 1.0 2.0 0.00 0.01 0.01 37 1027.6
20260831055018 73 90 1.0 2.0 0.00 0.01 0.01 34 1027.7
20260831054018 73 113 1.0 3.0 0.00 0.01 0.01 34 1027.7
20260831053018 73 158 1.0 4.0 0.00 0.01 0.01 35 1027.8
20260831052018 73 158 1.0 2.0 0.00 0.01 0.01 33 1027.8
20260831051018 74 248 2.0 4.0 0.00 0.01 0.01 34 1027.9
20260831050018 74 293 1.0 3.0 0.00 0.01 0.01 33 1028.0
20260831045018 74 270 2.0 4.0 0.00 0.01 0.01 33 1028.1
20260831044018 74 180 1.0 3.0 0.00 0.01 0.01 32 1028.2
20260831043018 75 0.0 2.0 0.00 0.01 0.01 33 1028.2
20260831042018 74 23 1.0 2.0 0.00 0.01 0.01 33 1028.3
20260831041018 73 0.0 2.0 0.00 0.01 0.01 33 1028.3
20260831040018 74 90 1.0 2.0 0.00 0.01 0.01 32 1028.4
20260831035018 73 293 1.0 3.0 0.00 0.01 0.01 33 1028.6
20260831034018 73 23 1.0 2.0 0.00 0.01 0.01 34 1028.8
20260831033018 73 293 2.0 4.0 0.00 0.01 0.01 35 1028.9
20260831032018 72 68 1.0 3.0 0.00 0.01 0.01 38 1029.0
20260831031018 72 293 2.0 5.0 0.00 0.01 0.01 39 1029.3
20260831030018 71 270 1.0 3.0 0.00 0.01 0.01 40 1029.3
20260831025018 71 338 1.0 3.0 0.00 0.01 0.01 40 1029.4
20260831024018 70 293 2.0 4.0 0.00 0.01 0.01 43 1029.5
20260831023018 70 158 1.0 2.0 0.00 0.01 0.01 47 1029.6
20260831022018 70 270 2.0 4.0 0.00 0.01 0.01 48 1029.8
20260831021018 69 248 2.0 4.0 0.00 0.01 0.01 49 1030.0
20260831020018 68 248 2.0 4.0 0.00 0.01 0.01 51 1030.2
20260831015018 68 248 3.0 8.0 0.00 0.01 0.01 49 1030.4
20260831014018 69 248 3.0 7.0 0.00 0.01 0.01 52 1030.5
20260831013018 68 0 2.0 5.0 0.00 0.01 0.01 55 1030.8
20260831012018 67 315 2.0 4.0 0.00 0.01 0.01 57 1030.9
20260831011018 67 315 1.0 3.0 0.00 0.01 0.01 59 1031.0
20260831010018 66 315 2.0 4.0 0.00 0.01 0.01 62 1031.2
20260831005018 65 23 1.0 2.0 0.00 0.01 0.01 64 1031.3
20260831004018 64 248 2.0 5.0 0.00 0.01 0.01 65 1031.4
20260831003017 63 248 1.0 3.0 0.00 0.01 0.01 69 1031.5
20260831002017 62 45 1.0 2.0 0.00 0.01 0.01 71 1031.6
20260831001017 61 23 1.0 3.0 0.00 0.01 0.01 73 1031.7
20260831000017 60 0.0 2.0 0.00 0.01 0.01 77 1031.7
20260830235017 59 45 1.0 3.0 0.00 0.01 0.01 78 1031.6
20260830234017 57 0.0 2.0 0.00 0.01 0.01 81 1031.6
20260830233018 56 315 1.0 2.0 0.00 0.01 0.01 83 1031.6
20260830232017 55 0.0 2.0 0.00 0.01 0.01 86 1031.6
20260830231017 53 45 1.0 4.0 0.00 0.01 0.01 89 1031.6